[[{"header":{"parameterUnit":"m.s-1","parameterCategory":1,"la1":30.2991,"la2":30.254,"lo1":-89.0895,"lo2":-89.0444,"dy":0.0017,"dx":0.0017,"nx":28,"ny":28,"refTime":"2025-03-31T21:00:00:Z","depth":0,"parameterNumber":2,"parameterNumberName":"U-component_of_WINDS"},"data":[0,0,0,0,0,0,0,0,0,0,0,0,0,0,0,0,0,0,0,0,0,0,0,0,0,0,0,0,0,0,0,0,0,0,0,0,0,0,0,0,0,0,0,0,0,0,0,0,0,0,0,0,0,0,0,0,0,0,-4.2088,-4.209,0,-4.2193,-4.2195,-4.2196,-4.2183,-4.2181,-4.2179,-4.2177,-4.2286,-4.229,-4.2294,0,0,0,0,0,0,0,0,0,0,0,0,0,-4.1879,-4.1883,-4.2088,-4.209,-4.2091,-4.2193,-4.2195,-4.2196,-4.2183,-4.2181,-4.2179,-4.2177,-4.2284,-4.2289,-4.2295,0,0,0,0,0,0,0,0,0,0,0,0,0,-4.1976,-4.1884,-4.2088,-4.2097,-4.2098,-4.2193,-4.2195,-4.2196,-4.2183,-4.2181,-4.2178,-4.2176,-4.2282,-4.2289,-4.2296,-4.2388,0,0,-4.2316,-4.2319,0,0,0,0,0,0,0,0,-4.197,-4.1983,-4.2094,-4.2096,-4.2098,-4.2172,-4.216,-4.2261,-4.2184,-4.2151,-4.2177,-4.2174,-4.225,-4.2259,-4.2285,-4.2393,-4.2398,-4.2317,-4.2321,-4.2324,-4.2325,0,0,0,0,0,0,0,-4.1963,-4.1979,-4.213,-4.2096,-4.2098,-4.2096,-4.2107,-4.2179,-4.2214,-4.2154,-4.2153,-4.2166,-4.2251,-4.2278,-4.2287,-4.24,-4.2316,-4.2322,-4.2327,-4.2329,-4.2592,-4.2595,0,0,0,0,0,0,-4.1954,-4.1973,-4.2127,-4.2133,-4.2027,-4.2102,-4.2114,-4.2151,-4.2213,-4.222,-4.2168,-4.2165,-4.2268,-4.2279,-4.2291,-4.2404,-4.2324,-4.233,-4.2334,-4.2589,-4.2593,-4.2596,0,0,0,0,0,0,-4.195,-4.1968,-4.2122,-4.2053,-4.2072,-4.2108,-4.215,-4.2155,-4.2182,-4.2223,-4.223,-4.2189,-4.2266,-4.2281,-4.2365,-4.2408,-4.2333,-4.2339,-4.2585,-4.259,-4.2594,-4.2631,0,0,0,0,0,0,-4.1944,-4.1967,-4.2001,-4.2054,-4.2076,-4.2194,-4.2153,-4.2158,-4.2193,-4.219,-4.2245,-4.2252,-4.2265,-4.2355,-4.2371,-4.2416,-4.2344,-4.2582,-4.2588,-4.2593,-4.2626,-4.2636,-4.2645,0,0,0,0,0,-4.1936,-4.2007,-4.2003,-4.2022,-4.212,-4.2196,-4.2209,-4.2223,-4.2197,-4.2233,-4.226,-4.225,-4.2401,-4.2363,-4.2382,-4.2429,-4.2579,-4.2586,-4.2592,-4.2622,-4.2634,-4.2645,0,0,0,0,0,0,-4.1959,-4.2014,-4.201,-4.21,-4.2144,-4.2194,-4.2239,-4.2235,-4.2287,-4.2282,-4.2298,-4.231,-4.2395,-4.242,-4.2378,-4.2523,-4.2486,-4.2497,-4.2503,-4.2515,-4.2524,-4.2515,-4.235,0,0,0,0,0,-4.1974,-4.203,-4.2076,-4.2151,-4.2173,-4.2203,-4.2236,-4.2243,-4.2289,-4.2307,-4.234,-4.2385,-4.2443,-4.248,-4.2536,-4.2631,-4.2643,-4.2672,-4.2682,-4.2689,-4.2698,-4.2751,-4.2765,-4.2618,-4.2617,-4.2617,0,0,-4.2006,-4.2044,-4.2078,-4.2157,-4.2191,-4.225,-4.2218,-4.2281,-4.2325,-4.2317,-4.2397,-4.2424,-4.2475,-4.2565,-4.2606,-4.2589,-4.2742,-4.2698,-4.2703,-4.2708,-4.276,-4.2774,-4.2786,-4.2622,-4.2621,-4.2621,0,0,-4.2095,-4.2129,-4.2195,-4.2231,-4.2284,-4.2303,-4.232,-4.2371,-4.2388,-4.247,-4.2465,-4.2518,-4.2617,-4.2654,-4.2686,-4.2792,-4.2785,-4.281,-4.2858,-4.291,-4.2922,-4.2932,-4.297,-4.2983,-4.2818,-4.2819,-4.2819,0,-4.2128,-4.2216,-4.223,-4.2295,-4.233,-4.2326,-4.2394,-4.2428,-4.2497,-4.2521,-4.2501,-4.2626,-4.2661,-4.276,-4.2786,-4.2812,-4.2831,-4.2803,-4.2919,-4.2929,-4.2939,-4.2976,-4.299,-4.2821,-4.2821,-4.2821,-4.282,0,-4.2255,-4.2316,-4.2364,-4.243,-4.2471,-4.2537,-4.2562,-4.2602,-4.2607,-4.2629,-4.2713,-4.2754,-4.2818,-4.2843,-4.2847,-4.2943,-4.2931,-4.2915,-4.2878,-4.2956,-4.299,-4.3004,-4.2825,-4.2824,-4.2823,-4.2823,0,0,-4.2358,-4.2433,-4.245,-4.2481,-4.254,-4.2588,-4.2655,-4.2718,-4.2752,-4.28,-4.2857,-4.2942,-4.2928,-4.2964,-4.2974,-4.302,-4.3102,-4.2998,-4.3,-4.3016,-4.3211,-4.3222,-4.3238,-4.3098,-4.3101,-4.3103,-4.3206,0,-4.2452,-4.2569,-4.2586,-4.269,-4.2747,-4.2746,-4.2804,-4.2847,-4.2871,-4.2923,-4.2949,-4.3009,-4.2986,-4.3008,-4.3053,-4.3082,-4.3141,-4.3075,-4.3152,-4.3154,-4.3138,-4.3256,-4.3268,-4.3363,-4.322,-4.3222,-4.3224,0,-4.2577,-4.2629,-4.2739,-4.2792,-4.2817,-4.2869,-4.2929,-4.2979,-4.3029,-4.3043,-4.3085,-4.3089,-4.3159,-4.3121,-4.3219,-4.3174,-4.3207,-4.3226,-4.323,-4.3237,-4.3193,-4.3266,-4.3393,-4.3408,-4.3245,-4.3244,-4.3242,0,-4.2642,-4.2739,-4.2818,-4.2844,-4.2908,-4.2945,-4.2973,-4.3021,-4.3058,-4.3111,-4.3136,-4.3197,-4.323,-4.3277,-4.3298,-4.3268,-4.3395,-4.3358,-4.3409,-4.3409,-4.3435,-4.3433,-4.3569,-4.3457,-4.3457,-4.3456,-4.3456,0,-4.2745,-4.2812,-4.2848,-4.2896,-4.2972,-4.2991,-4.3066,-4.3094,-4.3136,-4.3191,-4.3194,-4.3245,-4.327,-4.3326,-4.3343,-4.3422,-4.3437,-4.345,-4.3454,-4.345,-4.3448,-4.3471,-4.3464,-4.346,-4.3459,-4.3459,-4.3458,0,-4.2829,-4.2856,-4.2942,-4.2996,-4.3011,-4.3065,-4.3111,-4.3159,-4.3182,-4.3251,-4.3269,-4.3306,-4.3371,-4.3398,-4.3478,-4.349,-4.3581,-4.3579,-4.3564,-4.3565,-4.3614,-4.3609,-4.3769,-4.3791,-4.3665,-4.3666,-4.3667,0,-4.2893,-4.2945,-4.3005,-4.3042,-4.3071,-4.313,-4.3169,-4.319,-4.323,-4.3292,-4.3333,-4.3398,-4.3452,-4.3557,-4.3592,-4.3654,-4.3654,-4.3706,-4.3663,-4.3658,-4.3655,-4.3651,-4.3657,-4.3713,-4.3714,-4.3715,-4.3716,0,-4.3004,-4.3015,-4.307,-4.3131,-4.3176,-4.3225,-4.3273,-4.3303,-4.3332,-4.3377,-4.3444,-4.3486,-4.3568,-4.3634,-4.3698,-4.3728,-4.3728,-4.373,-4.3745,-4.3741,-4.3729,-4.3736,-4.3585,-4.3726,-4.3725,-4.3724,-4.3724,-4.3723,-4.308,-4.3126,-4.3176,-4.3238,-4.3276,-4.3321,-4.3369,-4.3399,-4.3455,-4.3524,-4.3533,-4.3606,-4.3656,-4.3743,-4.3776,-4.3833,-4.382,-4.3842,-4.3847,-4.3852,-4.3855,-4.3721,-4.3845,-4.3845,-4.3845,-4.3845,-4.3844,0,-4.3191,-4.3223,-4.328,-4.3347,-4.3396,-4.3391,-4.3444,-4.3486,-4.3549,-4.3596,-4.3649,-4.3727,-4.3792,-4.3832,-4.3897,-4.3935,-4.3937,-4.3952,-4.3949,-4.3956,-4.3863,-4.3844,-4.3949,-4.3949,-4.3949,-4.3949,-4.3949,-4.3949,-4.3254,-4.3333,-4.335,-4.3449,-4.3481,-4.3551,-4.3582,-4.3624,-4.3662,-4.3749,-4.3802,-4.3828,-4.3873,-4.3942,-4.4001,-4.4011,-4.4035,-4.4051,-4.406,-4.3973,-4.3962,-4.3952,-4.3934,-4.4056,-4.4056,-4.4148,-4.4149,-4.415]},{"header":{"parameterUnit":"m.s-1","parameterCategory":1,"la1":30.2991,"la2":30.254,"lo1":-89.0895,"lo2":-89.0444,"dy":0.0017,"dx":0.0017,"nx":28,"ny":28,"refTime":"2025-03-31T21:00:00:Z","depth":0,"parameterNumber":3,"parameterNumberName":"V-component_of_WINDS"},"data":[0,0,0,0,0,0,0,0,0,0,0,0,0,0,0,0,0,0,0,0,0,0,0,0,0,0,0,0,0,0,0,0,0,0,0,0,0,0,0,0,0,0,0,0,0,0,0,0,0,0,0,0,0,0,0,0,0,0,3.5732,3.5733,0,3.5832,3.5833,3.5834,3.5882,3.5882,3.5882,3.5882,3.5981,3.5983,3.5986,0,0,0,0,0,0,0,0,0,0,0,0,0,3.5579,3.5582,3.5732,3.5733,3.5735,3.5832,3.5833,3.5835,3.5882,3.5882,3.5882,3.5882,3.598,3.5983,3.5986,0,0,0,0,0,0,0,0,0,0,0,0,0,3.5659,3.5582,3.5732,3.577,3.5775,3.5832,3.5833,3.5835,3.5882,3.5882,3.5882,3.5882,3.5979,3.5983,3.5987,3.6012,0,0,3.5999,3.6001,0,0,0,0,0,0,0,0,3.5654,3.5664,3.5763,3.5768,3.5773,3.5845,3.5816,3.5894,3.5882,3.5841,3.5882,3.5882,3.5935,3.5943,3.5962,3.6017,3.6021,3.5999,3.6002,3.6003,3.6005,0,0,0,0,0,0,0,3.5649,3.566,3.5772,3.5765,3.577,3.5781,3.5792,3.5831,3.5887,3.5845,3.5848,3.586,3.5938,3.5958,3.5964,3.6023,3.5999,3.6003,3.6005,3.6007,3.6104,3.6104,0,0,0,0,0,0,3.5637,3.5655,3.5769,3.5775,3.5712,3.5784,3.5797,3.5822,3.5887,3.5897,3.586,3.5862,3.5951,3.596,3.5968,3.6003,3.6003,3.6007,3.6009,3.6104,3.6104,3.6104,0,0,0,0,0,0,3.5634,3.5647,3.5764,3.5716,3.5732,3.5787,3.5814,3.5824,3.5844,3.5898,3.5908,3.587,3.5951,3.5962,3.6001,3.6007,3.6009,3.6013,3.6104,3.6104,3.6104,3.6072,0,0,0,0,0,0,3.5629,3.5645,3.5657,3.5716,3.5734,3.5797,3.5815,3.5826,3.5851,3.5854,3.5911,3.592,3.5952,3.5995,3.6005,3.6012,3.6016,3.6104,3.6104,3.6104,3.6073,3.6072,3.607,0,0,0,0,0,3.5624,3.5643,3.5657,3.567,3.575,3.5797,3.5808,3.5846,3.5851,3.5862,3.5897,3.5918,3.6004,3.5999,3.6011,3.6019,3.6103,3.6104,3.6104,3.6074,3.6072,3.607,0,0,0,0,0,0,3.5581,3.5651,3.5668,3.5707,3.5746,3.5805,3.5821,3.5842,3.588,3.5881,3.5925,3.5937,3.5972,3.5999,3.5992,3.6047,3.6056,3.6059,3.6029,3.6027,3.6026,3.6019,3.6019,0,0,0,0,0,3.5577,3.5611,3.567,3.5698,3.5717,3.5765,3.5788,3.5814,3.5855,3.5872,3.591,3.5948,3.5984,3.6007,3.6043,3.6077,3.609,3.6088,3.6087,3.6085,3.6087,3.6107,3.6108,3.6106,3.6106,3.6106,0,0,3.5568,3.561,3.5628,3.5691,3.5724,3.5758,3.5779,3.5813,3.5838,3.5876,3.5916,3.5945,3.5991,3.6028,3.6046,3.6051,3.6091,3.6086,3.6084,3.6087,3.6108,3.6108,3.6108,3.6106,3.6106,3.6106,0,0,3.5568,3.5603,3.5632,3.5665,3.5715,3.5747,3.5754,3.581,3.5831,3.5872,3.5901,3.5931,3.5992,3.6023,3.6047,3.6059,3.608,3.607,3.6062,3.6081,3.6081,3.6081,3.6086,3.6087,3.6071,3.6071,3.6071,0,3.555,3.5602,3.5643,3.5676,3.5703,3.574,3.5768,3.5798,3.5857,3.5874,3.5879,3.5957,3.599,3.6035,3.6038,3.6056,3.6065,3.6064,3.6078,3.6078,3.6079,3.6084,3.6086,3.607,3.607,3.607,3.607,0,3.5578,3.5613,3.563,3.5688,3.5716,3.5746,3.5791,3.5814,3.5837,3.5868,3.5908,3.595,3.5995,3.6007,3.6029,3.6055,3.6057,3.6069,3.6079,3.6077,3.6083,3.6085,3.6068,3.6068,3.6069,3.6069,0,0,3.5555,3.5635,3.564,3.5667,3.5725,3.5753,3.5784,3.583,3.5849,3.5888,3.5916,3.5966,3.5979,3.6006,3.6032,3.6048,3.6055,3.6059,3.6061,3.6057,3.6086,3.6077,3.6078,3.6069,3.6069,3.607,3.6082,0,3.5564,3.5624,3.5661,3.5706,3.5739,3.5774,3.5802,3.584,3.5869,3.5901,3.5933,3.5969,3.5982,3.5998,3.6016,3.6051,3.6062,3.605,3.6094,3.6095,3.6082,3.6081,3.6071,3.6081,3.6084,3.6085,3.6085,0,3.5582,3.5622,3.567,3.5725,3.574,3.5765,3.5809,3.584,3.5883,3.5903,3.5933,3.596,3.5994,3.6,3.6046,3.6038,3.6058,3.6077,3.6078,3.6084,3.609,3.6087,3.6085,3.6087,3.6089,3.6088,3.6088,0,3.5562,3.5627,3.5664,3.5686,3.575,3.5767,3.5794,3.5838,3.5863,3.5901,3.5917,3.5958,3.5981,3.6012,3.6048,3.6049,3.6091,3.61,3.6108,3.6107,3.6116,3.6115,3.6118,3.6128,3.6128,3.6128,3.6128,0,3.5568,3.5596,3.5656,3.5679,3.5711,3.5753,3.5784,3.5814,3.5852,3.5881,3.5913,3.5939,3.5985,3.6017,3.6045,3.6079,3.6089,3.6106,3.6113,3.6103,3.6101,3.6118,3.6118,3.6128,3.6128,3.6128,3.6128,0,3.5551,3.5592,3.5635,3.5693,3.5708,3.5729,3.5778,3.5801,3.5832,3.5868,3.5879,3.5927,3.5966,3.6005,3.6057,3.6076,3.6109,3.6119,3.6095,3.61,3.6106,3.6105,3.6119,3.6123,3.613,3.6129,3.6129,0,3.5553,3.5575,3.5636,3.5658,3.5685,3.572,3.5746,3.5788,3.5813,3.5864,3.5881,3.5922,3.5957,3.6017,3.6056,3.6095,3.6107,3.6109,3.6113,3.6102,3.6107,3.6106,3.6108,3.6108,3.6107,3.6107,3.6107,0,3.5552,3.5571,3.5608,3.5652,3.5682,3.5718,3.5755,3.5771,3.5819,3.5846,3.5887,3.5914,3.5967,3.6008,3.6052,3.6079,3.6101,3.6105,3.6109,3.61,3.6086,3.6094,3.6092,3.6105,3.6105,3.6105,3.6105,3.6105,3.5545,3.5567,3.5613,3.5652,3.5685,3.5719,3.5744,3.5778,3.5813,3.5861,3.5882,3.5923,3.5965,3.6027,3.6053,3.6085,3.6091,3.6097,3.6098,3.6099,3.6097,3.608,3.6093,3.6093,3.6093,3.6093,3.6093,0,3.5546,3.5577,3.5613,3.5665,3.5696,3.5715,3.5757,3.5781,3.5817,3.5855,3.5889,3.5936,3.5975,3.6017,3.6058,3.6075,3.6086,3.6085,3.6084,3.609,3.6089,3.6082,3.6075,3.6075,3.6075,3.6075,3.6075,3.6075,3.555,3.5589,3.5613,3.5667,3.5698,3.574,3.5762,3.5793,3.5824,3.5875,3.5908,3.5935,3.5975,3.6019,3.6055,3.6067,3.608,3.6076,3.609,3.6089,3.609,3.6091,3.6085,3.6079,3.6079,3.6088,3.6088,3.6088]}]]